User: anonymous   Login
Location: Unspecified
(0.0000°N, 0.0000°E)
Time: 08:16:27
(UTC+00:00)
Language:

DIAMOND GREEN - Orbit

View from above orbital plane
View from above orbital plane
View from above satellite
View from above satellite

Ground track
Ground track

The orbit data is extracted from the following two-line orbital elements,

1 42785U 17036W   23088.60884438  .00034250  00000-0  95054-3 0  9995
2 42785  97.1626 125.3359 0008840  46.5203 313.6775 15.36794182320639
Epoch (UTC): 29 March 2023 14:36:44
Eccentricity: 0.0008840
inclination: 97.1626°
perigee height: 449 km
apogee height: 461 km
right ascension of ascending node: 125.3359°
argument of perigee: 46.5203°
revolutions per day: 15.36794182
mean anomaly at epoch: 313.6775°
orbit number at epoch: 32063

The dashed part of the orbit path shows where the satellite is in the earth's shadow,  

DLR